[[{"header":{"parameterUnit":"m.s-1","parameterCategory":1,"la1":30.2991,"la2":30.254,"lo1":-89.0895,"lo2":-89.0444,"dy":0.0017,"dx":0.0017,"nx":28,"ny":28,"refTime":"2025-04-29T03:00:00:Z","depth":0,"parameterNumber":2,"parameterNumberName":"U-component_of_WINDS"},"data":[0,0,0,0,0,0,0,0,0,0,0,0,0,0,0,0,0,0,0,0,0,0,0,0,0,0,0,0,0,0,0,0,0,0,0,0,0,0,0,0,0,0,0,0,0,0,0,0,0,0,0,0,0,0,0,0,0,0,-3.3572,-3.3572,0,-3.362,-3.3621,-3.3622,-3.3591,-3.3589,-3.3588,-3.3586,-3.3634,-3.3637,-3.3639,0,0,0,0,0,0,0,0,0,0,0,0,0,-3.3452,-3.3455,-3.3572,-3.3572,-3.3573,-3.362,-3.3621,-3.3622,-3.3591,-3.3589,-3.3587,-3.3586,-3.3633,-3.3637,-3.364,0,0,0,0,0,0,0,0,0,0,0,0,0,-3.3503,-3.3455,-3.3572,-3.3563,-3.3563,-3.362,-3.3621,-3.3622,-3.3591,-3.3589,-3.3587,-3.3585,-3.3632,-3.3636,-3.364,-3.3707,0,0,-3.3652,-3.3654,0,0,0,0,0,0,0,0,-3.35,-3.3507,-3.3564,-3.3564,-3.3564,-3.3597,-3.3596,-3.365,-3.3592,-3.3581,-3.3586,-3.3584,-3.3624,-3.3628,-3.3642,-3.371,-3.3712,-3.3652,-3.3655,-3.3657,-3.3658,0,0,0,0,0,0,0,-3.3497,-3.3505,-3.3591,-3.3565,-3.3565,-3.3557,-3.3562,-3.3607,-3.3614,-3.3581,-3.3579,-3.3586,-3.3623,-3.3638,-3.3643,-3.3712,-3.3652,-3.3656,-3.3658,-3.366,-3.3839,-3.3841,0,0,0,0,0,0,-3.3494,-3.3502,-3.3589,-3.3592,-3.3526,-3.3561,-3.3567,-3.3589,-3.3613,-3.3615,-3.3587,-3.3584,-3.3633,-3.3638,-3.3644,-3.3724,-3.3656,-3.366,-3.3662,-3.3836,-3.3839,-3.3842,0,0,0,0,0,0,-3.3491,-3.3502,-3.3587,-3.3547,-3.3557,-3.3566,-3.3591,-3.3591,-3.3606,-3.3618,-3.3618,-3.3601,-3.3631,-3.3639,-3.3692,-3.3725,-3.3662,-3.3665,-3.3833,-3.3837,-3.384,-3.3885,0,0,0,0,0,0,-3.3488,-3.3501,-3.3527,-3.3548,-3.3559,-3.3635,-3.3593,-3.3593,-3.3613,-3.3609,-3.3631,-3.3632,-3.363,-3.3687,-3.3696,-3.373,-3.3669,-3.383,-3.3835,-3.3839,-3.388,-3.3889,-3.3897,0,0,0,0,0,-3.3484,-3.3537,-3.3528,-3.3539,-3.3591,-3.3636,-3.3643,-3.364,-3.3616,-3.3641,-3.3649,-3.3632,-3.3721,-3.3692,-3.3703,-3.3738,-3.3828,-3.3834,-3.3839,-3.3877,-3.3888,-3.3897,0,0,0,0,0,0,-3.3518,-3.3539,-3.353,-3.3591,-3.3612,-3.3631,-3.3663,-3.3652,-3.368,-3.3675,-3.3669,-3.3674,-3.373,-3.374,-3.3707,-3.3805,-3.3771,-3.3779,-3.3796,-3.3807,-3.3815,-3.381,-3.3672,0,0,0,0,0,-3.3533,-3.3568,-3.3585,-3.3637,-3.3648,-3.3654,-3.3674,-3.367,-3.3691,-3.37,-3.3711,-3.3733,-3.3766,-3.3787,-3.3818,-3.3883,-3.3887,-3.3913,-3.3921,-3.3928,-3.3934,-3.3969,-3.398,-3.3859,-3.3859,-3.3859,0,0,-3.3563,-3.3579,-3.3601,-3.3644,-3.366,-3.3696,-3.3662,-3.3701,-3.3728,-3.3705,-3.3756,-3.3766,-3.379,-3.3849,-3.3876,-3.3859,-3.3969,-3.3935,-3.394,-3.3942,-3.3976,-3.3987,-3.3997,-3.3863,-3.3862,-3.3862,0,0,-3.3636,-3.3653,-3.3698,-3.3716,-3.3741,-3.3745,-3.3756,-3.3778,-3.3783,-3.3835,-3.3819,-3.3851,-3.3908,-3.3925,-3.3942,-3.4026,-3.401,-3.4036,-3.4079,-3.4113,-3.4123,-3.4131,-3.416,-3.417,-3.4043,-3.4043,-3.4043,0,-3.367,-3.3725,-3.3723,-3.3764,-3.3783,-3.3767,-3.3812,-3.3829,-3.3863,-3.3877,-3.3858,-3.393,-3.3945,-3.4008,-3.4029,-3.4043,-3.4055,-3.4032,-3.4122,-3.413,-3.4138,-3.4165,-3.4176,-3.4045,-3.4045,-3.4045,-3.4045,0,-3.3765,-3.3803,-3.3837,-3.3871,-3.3895,-3.3938,-3.3943,-3.3967,-3.3962,-3.3968,-3.4021,-3.4039,-3.4073,-3.4089,-3.4084,-3.4152,-3.4141,-3.4122,-3.4087,-3.4152,-3.4177,-3.4188,-3.4049,-3.4048,-3.4048,-3.4047,0,0,-3.3857,-3.3892,-3.3904,-3.392,-3.3948,-3.3977,-3.4021,-3.4056,-3.4076,-3.4101,-3.4137,-3.4187,-3.4171,-3.4189,-3.4187,-3.4217,-3.4281,-3.4195,-3.4195,-3.4209,-3.4357,-3.4368,-3.438,-3.4273,-3.4275,-3.4277,-3.4354,0,-3.3931,-3.4006,-3.4007,-3.4076,-3.4111,-3.4098,-3.4136,-3.4157,-3.4165,-3.4196,-3.4205,-3.424,-3.4217,-3.4228,-3.4258,-3.4267,-3.431,-3.4262,-3.4305,-3.4306,-3.4296,-3.4394,-3.4406,-3.4478,-3.4364,-3.4366,-3.4367,0,-3.4026,-3.4055,-3.4128,-3.4152,-3.4167,-3.4201,-3.4233,-3.4264,-3.4288,-3.4292,-3.4315,-3.4308,-3.4352,-3.4319,-3.438,-3.4347,-3.4365,-3.4373,-3.4376,-3.4377,-3.4338,-3.4396,-3.4501,-3.4511,-3.4383,-3.4382,-3.438,0,-3.4084,-3.4142,-3.4193,-3.4207,-3.4237,-3.4261,-3.4275,-3.4298,-3.4319,-3.4348,-3.4361,-3.4395,-3.4413,-3.4439,-3.4442,-3.4418,-3.4503,-3.447,-3.4506,-3.4506,-3.4522,-3.452,-3.4629,-3.4539,-3.4538,-3.4538,-3.4538,0,-3.4164,-3.4209,-3.4219,-3.425,-3.4301,-3.4302,-3.4352,-3.4364,-3.4385,-3.4418,-3.4409,-3.444,-3.4444,-3.4476,-3.4479,-3.4529,-3.4537,-3.4541,-3.4541,-3.454,-3.4539,-3.455,-3.4544,-3.4541,-3.454,-3.454,-3.4539,0,-3.4236,-3.4245,-3.43,-3.4325,-3.4332,-3.4368,-3.4389,-3.4419,-3.4428,-3.447,-3.448,-3.4493,-3.4531,-3.4537,-3.4582,-3.4584,-3.4643,-3.4639,-3.4634,-3.4633,-3.4668,-3.4664,-3.4785,-3.48,-3.4702,-3.4703,-3.4704,0,-3.4285,-3.432,-3.4349,-3.4371,-3.4386,-3.4422,-3.4444,-3.4448,-3.4471,-3.4503,-3.4529,-3.4567,-3.4597,-3.4658,-3.4671,-3.4706,-3.4701,-3.4741,-3.4706,-3.4704,-3.4699,-3.4696,-3.4699,-3.4747,-3.4748,-3.4749,-3.475,0,-3.4372,-3.4375,-3.4407,-3.4442,-3.4469,-3.4496,-3.4522,-3.4541,-3.4548,-3.4575,-3.4614,-3.4638,-3.4684,-3.4721,-3.4756,-3.477,-3.4761,-3.4761,-3.4771,-3.4769,-3.4765,-3.4766,-3.465,-3.4758,-3.4757,-3.4756,-3.4756,-3.4755,-3.4432,-3.4462,-3.4488,-3.4525,-3.4545,-3.457,-3.4599,-3.4612,-3.4645,-3.4683,-3.4685,-3.4727,-3.4753,-3.4799,-3.4815,-3.4849,-3.4836,-3.4851,-3.4854,-3.4857,-3.4859,-3.4762,-3.4856,-3.4855,-3.4855,-3.4855,-3.4855,0,-3.4517,-3.4533,-3.4567,-3.4604,-3.4633,-3.4625,-3.4653,-3.4678,-3.4716,-3.4741,-3.4771,-3.4817,-3.4853,-3.4871,-3.4907,-3.493,-3.4927,-3.4939,-3.4936,-3.494,-3.487,-3.4857,-3.4941,-3.4941,-3.4941,-3.4941,-3.4941,-3.4941,-3.4564,-3.4614,-3.462,-3.4681,-3.4697,-3.4739,-3.4757,-3.478,-3.4799,-3.4851,-3.4882,-3.4893,-3.4915,-3.4953,-3.4987,-3.4991,-3.5004,-3.5018,-3.502,-3.4953,-3.4944,-3.4936,-3.4923,-3.5021,-3.5021,-3.5087,-3.5087,-3.5088]},{"header":{"parameterUnit":"m.s-1","parameterCategory":1,"la1":30.2991,"la2":30.254,"lo1":-89.0895,"lo2":-89.0444,"dy":0.0017,"dx":0.0017,"nx":28,"ny":28,"refTime":"2025-04-29T03:00:00:Z","depth":0,"parameterNumber":3,"parameterNumberName":"V-component_of_WINDS"},"data":[0,0,0,0,0,0,0,0,0,0,0,0,0,0,0,0,0,0,0,0,0,0,0,0,0,0,0,0,0,0,0,0,0,0,0,0,0,0,0,0,0,0,0,0,0,0,0,0,0,0,0,0,0,0,0,0,0,0,3.6599,3.66,0,3.6676,3.6677,3.6678,3.6755,3.6756,3.6757,3.6758,3.6831,3.6832,3.6833,0,0,0,0,0,0,0,0,0,0,0,0,0,3.6514,3.6515,3.6599,3.66,3.6601,3.6676,3.6677,3.6678,3.6755,3.6756,3.6757,3.6758,3.6831,3.6832,3.6833,0,0,0,0,0,0,0,0,0,0,0,0,0,3.6566,3.6515,3.6599,3.6648,3.6653,3.6676,3.6677,3.6678,3.6754,3.6756,3.6757,3.6759,3.6831,3.6832,3.6833,3.6812,0,0,3.6838,3.6839,0,0,0,0,0,0,0,0,3.6563,3.657,3.664,3.6645,3.6651,3.6708,3.6674,3.6723,3.6754,3.6716,3.6758,3.676,3.6788,3.6793,3.6804,3.6815,3.6818,3.6838,3.6839,3.684,3.684,0,0,0,0,0,0,0,3.656,3.6567,3.6629,3.6641,3.6647,3.6665,3.6674,3.6684,3.6742,3.6719,3.6725,3.6733,3.6792,3.6803,3.6807,3.6819,3.6838,3.6839,3.684,3.6841,3.6818,3.6817,0,0,0,0,0,0,3.6549,3.6563,3.6627,3.6632,3.661,3.6665,3.6676,3.6688,3.6742,3.6752,3.6732,3.6737,3.6799,3.6805,3.681,3.6789,3.684,3.6841,3.6842,3.682,3.6818,3.6816,0,0,0,0,0,0,3.6547,3.6554,3.6624,3.6599,3.6609,3.6665,3.6678,3.6688,3.67,3.6752,3.6763,3.6733,3.6801,3.6807,3.6811,3.6793,3.6842,3.6843,3.6821,3.6819,3.6817,3.6747,0,0,0,0,0,0,3.6544,3.6553,3.6546,3.6598,3.661,3.6625,3.6677,3.6689,3.6703,3.671,3.6756,3.6765,3.6803,3.6809,3.6813,3.6796,3.6844,3.6823,3.682,3.6818,3.6752,3.6743,3.6736,0,0,0,0,0,3.6541,3.6521,3.6545,3.6552,3.6603,3.6624,3.6631,3.6676,3.6701,3.6694,3.6728,3.6763,3.6794,3.6809,3.6814,3.6797,3.6825,3.6821,3.6818,3.6755,3.6745,3.6736,0,0,0,0,0,0,3.6463,3.6529,3.6556,3.6553,3.6583,3.6637,3.663,3.6663,3.6685,3.669,3.6744,3.6754,3.6752,3.6775,3.6789,3.678,3.6814,3.6812,3.6765,3.6755,3.6748,3.6742,3.6845,0,0,0,0,0,3.6445,3.6459,3.6515,3.6507,3.6521,3.6572,3.6583,3.6616,3.6648,3.666,3.6694,3.6722,3.6739,3.6748,3.6766,3.6755,3.6767,3.6746,3.6738,3.6732,3.6729,3.6726,3.6718,3.6805,3.6805,3.6805,0,0,3.6409,3.6447,3.6452,3.6493,3.6519,3.6531,3.6582,3.6591,3.66,3.6661,3.6668,3.6694,3.6729,3.6726,3.6726,3.6745,3.6708,3.6727,3.6721,3.6722,3.6722,3.6714,3.6706,3.6803,3.6803,3.6804,0,0,3.635,3.6379,3.6377,3.6404,3.6445,3.6479,3.6479,3.6528,3.6549,3.6557,3.6604,3.6614,3.664,3.6664,3.668,3.6632,3.6665,3.6636,3.6594,3.6591,3.6584,3.6578,3.6562,3.6556,3.6633,3.6632,3.6632,0,3.6299,3.632,3.6371,3.6379,3.6396,3.6454,3.6452,3.6474,3.6517,3.6527,3.6548,3.6585,3.6612,3.6616,3.6605,3.6615,3.6616,3.6631,3.6581,3.6576,3.6571,3.6557,3.655,3.6629,3.6629,3.6629,3.663,0,3.6256,3.627,3.6263,3.6307,3.6323,3.6325,3.6376,3.6386,3.6417,3.645,3.6458,3.6493,3.652,3.6524,3.6553,3.6532,3.6543,3.6572,3.6608,3.6558,3.6546,3.654,3.6623,3.6625,3.6626,3.6627,0,0,3.6148,3.6222,3.6219,3.6241,3.6291,3.6302,3.6307,3.6336,3.6343,3.6371,3.6377,3.6399,3.6427,3.6445,3.6478,3.6475,3.6436,3.6505,3.6506,3.6491,3.6417,3.6395,3.6388,3.6459,3.6458,3.6457,3.6414,0,3.6098,3.6113,3.6161,3.6161,3.6175,3.6231,3.6235,3.6266,3.6297,3.6312,3.6345,3.6361,3.6396,3.6407,3.6407,3.6441,3.6422,3.6445,3.6464,3.6465,3.6455,3.6381,3.6358,3.6315,3.6409,3.6408,3.6408,0,3.6041,3.6069,3.6071,3.6123,3.6131,3.6134,3.6166,3.6179,3.6215,3.6238,3.6259,3.6297,3.6305,3.6338,3.635,3.6365,3.6375,3.6394,3.6393,3.6397,3.6433,3.6383,3.6303,3.6296,3.64,3.6401,3.6401,0,3.5964,3.6001,3.6009,3.6025,3.6085,3.6086,3.6111,3.6149,3.6164,3.619,3.6201,3.6227,3.6241,3.626,3.6304,3.6324,3.6311,3.6348,3.6329,3.6328,3.6324,3.6324,3.6245,3.633,3.633,3.633,3.633,0,3.5903,3.5902,3.5975,3.5979,3.5981,3.6035,3.6034,3.6064,3.6097,3.6108,3.6157,3.6165,3.6222,3.6237,3.6271,3.6276,3.6282,3.63,3.6309,3.6296,3.6294,3.6304,3.6308,3.6328,3.6329,3.6329,3.6329,0,3.5817,3.5865,3.5877,3.5934,3.5949,3.5947,3.5996,3.6001,3.6036,3.6048,3.6054,3.6108,3.6128,3.6174,3.6205,3.6228,3.6225,3.6241,3.6213,3.6219,3.6199,3.62,3.6124,3.6117,3.6205,3.6204,3.6203,0,3.5775,3.5777,3.5835,3.5847,3.5871,3.5889,3.5905,3.5958,3.5973,3.6015,3.6016,3.6041,3.6063,3.6092,3.6133,3.6158,3.6175,3.6147,3.6179,3.6166,3.6176,3.6176,3.6176,3.6139,3.6138,3.6137,3.6136,0,3.5697,3.5722,3.5745,3.5776,3.5795,3.5822,3.5851,3.5857,3.5917,3.5931,3.5954,3.5971,3.6005,3.6029,3.606,3.6084,3.612,3.6126,3.6123,3.611,3.6095,3.6104,3.6195,3.6127,3.6128,3.6129,3.6129,3.613,3.5633,3.5638,3.5681,3.5705,3.5733,3.576,3.5769,3.5806,3.5826,3.5859,3.5889,3.5909,3.5946,3.5992,3.6014,3.603,3.6047,3.6043,3.6042,3.604,3.6035,3.6092,3.6035,3.6035,3.6036,3.6036,3.6036,0,3.5558,3.5589,3.5611,3.5652,3.5671,3.5706,3.574,3.5753,3.5771,3.5803,3.5826,3.5852,3.5876,3.5919,3.5946,3.595,3.5967,3.5956,3.5956,3.5961,3.6017,3.6017,3.5941,3.5941,3.5941,3.5941,3.5942,3.5942,3.5522,3.5533,3.5562,3.5587,3.5618,3.564,3.5657,3.5681,3.5708,3.5736,3.5757,3.5786,3.5823,3.5854,3.5877,3.5889,3.5897,3.588,3.5897,3.5948,3.5957,3.5966,3.5966,3.5881,3.5881,3.584,3.584,3.5839]}]]